www.pogodaiklimat.ru

Погода и климат >> Архив погоды >> Россия >> Чукотка >> Эгвекинот


ПОГОДА в Эгвекиноте

  • Прогноз погоды в Эгвекиноте
  • Монитор погоды в Эгвекиноте
  • Климат города

АРХИВ ПОГОДЫ в Эгвекиноте

Время (UTC), дата Ветер
(напр.,м/с)
 
Видим.   Явления Облачность Т
(С)
Тd
(С)
f
(%)
Тe
(С)
Тes
(С)
Комфортность P
(гПа)
Po
(гПа)
Тmin
(С)
Tmax
(С)
R
(мм)
R24
(мм)
S
(см)
09 10.12 С 6-10
{11}
20 км ясно -9.3 -16.9 54 -18 -18 1026.1 1023.1
12 10.12 СЗ 6-10
{10}
20 км ясно -9.2 -17.0 53 -17 -17 1026.4 1023.4
15 10.12 С 7-10
{11}
20 км ясно -10.0 -16.1 61 -19 -19 1026.1 1023.1
18 10.12 С 9-12
{13}
20 км 3/3 1000 м
[Sc]
-9.8 -18.0 51 -20 -20 1025.7 1022.7 -10.7 15
21 10.12 С 7-13
{14}
20 км 6/6 1000 м
[Sc]
-9.2 -17.8 50 -18 -18 1025.8 1022.8 -10.7
00 11.12 С 8-12
{14}
10 км 4/4 1000 м
[Sc]
-9.8 -17.2 55 -19 -19 1025.3 1022.3
03 11.12 С 9-14
{14}
10 км 10/6 960 м
[Cb cap Ac und]
-9.7 -17.9 51 -20 -20 1024.1 1021.1
06 11.12 С 9-18
{18}
10 км позёмок {метель} 10/5 1500 м
[Sc Ac trans Ci sp]
-10.1 -18.9 49 -20 -20 1023.5 1020.5 -8.9
09 11.12 С 10-15
{18}
10 км позёмок {метель} 6/4 1500 м
[Sc Ci fib]
-11.0 -19.2 51 -22 -22 1022.0 1019.0
12 11.12 С 8-15
{17}
10 км {метель} 3/1 1000 м
[Sc Ci fib]
-12.4 -20.2 52 -23 -23 1021.4 1018.4
15 11.12 СЗ 8-15
{19}
10 км 4/3 1000 м
[Sc Ci fib]
-14.5 -23.3 47 -25 -25 1020.4 1017.4
18 11.12 СЗ 11-20
{20}
10 км позёмок {метель} 3/3 1000 м
[Sc]
-13.5 -20.4 56 -25 -25 1019.0 1016.0 -14.8 15
21 11.12 СЗ 11-18
{21}
10 км позёмок {метель} 10/3 1000 м
[Sc Ci sp]
-13.5 -18.9 64 -25 -25 1019.0 1016.0 -14.8
00 12.12 СЗ 10-18
{20}
10 км позёмок {метель} 4/3 1000 м
[Sc Ci fib]
-13.9 -22.1 50 -26 -26 1019.4 1016.4
03 12.12 СЗ 9-17
{20}
10 км позёмок {метель} 4/3 1000 м
[Sc Ci fib]
-14.3 -21.6 54 -26 -26 1019.4 1016.4
06 12.12 С 13-20
{21}
4000 м слабый ливневой снег {метель} 10/6 600 м
[Cb cap As op]
-14.8 -20.8 60 -28 -28 1018.3 1015.3 -13.1 0.0
09 12.12 С 11-21
{21}
4000 м слабый ливневой снег {метель} 10/6 600 м
[Cb cap As op]
-14.4 -20.5 60 -27 -27 1017.2 1014.2
12 12.12 С 11-19
{21}
4000 м слабый ливневой снег {метель} 10/6 600 м
[Cb cap As op]
-13.8 -19.5 62 -26 -26 1015.7 1012.7
15 12.12 С 1-19
{21}
4000 м слабый ливневой снег {метель} 10/6 600 м
[Cb cap As op]
-13.4 -18.8 64 -16 -16 1014.2 1011.2
18 12.12 С 12-20
{22}
1000 м слабый ливневой снег {метель} 10/6 600 м
[Cb cap As op]
-13.1 -16.1 78 -25 -25 1012.6 1009.6 -14.8 0.4 14
21 12.12 СЗ 13-20
{22}
2000 м слабый ливневой снег {метель} 10/5 600 м
[Cb cap As op]
-12.1 -17.0 67 -24 -24 1010.5 1007.6 -14.8
00 13.12 СЗ 12-18
{21}
1000 м снег {ливн. осадки} 10/3 600 м
[Sc As op]
-11.2 -16.1 67 -23 -23 1009.2 1006.3
03 13.12 СЗ 9-15
{20}
2000 м слабый снег {метель} 10/5 1000 м
[Sc As op]
-10.0 -14.8 68 -20 -20 1007.1 1004.2
06 13.12 С 7-11
{15}
4000 м слабый снег {метель} 10/6 1000 м
[Sc As op]
-8.8 -13.5 69 -18 -18 1006.3 1003.4 -8.8 1
09 13.12 С 8-13
{14}
4000 м слабый снег {метель} 10/6 1000 м
[Sc As op]
-8.3 -12.1 74 -18 -18 1004.4 1001.5
12 13.12 С 10-15
{15}
4000 м слабый снег {метель} 10/6 1000 м
[Sc As op]
-7.3 -12.0 69 -17 -17 1002.3 999.4
15 13.12 С 9-15
{18}
2000 м слабый снег {метель} 10/6 600 м
[Sc As op]
-6.7 -10.7 73 -16 -16 999.1 996.2
18 13.12 С 9-15
{19}
2000 м слабый снег {метель} 10/6 600 м
[Sc As op]
-5.7 -9.2 76 -15 -15 996.6 993.8 -9.0 2 14
21 13.12 СЗ 5
{15}
1000 м сильный снег {метель} 10/6 600 м
[Sc As op]
-4.5 -6.5 86 -12 -12 995.4 992.6 -9.0
00 14.12 С 5
{10}
1000 м сильный снег {метель} 10/6 600 м
[Sc As op]
-3.0 -6.0 80 -10 -10 994.1 991.3
03 14.12 С 3
{9}
2000 м снег {метель} 10/6 600 м
[Sc As op]
-3.3 -4.4 92 -9 -9 994.0 991.2
06 14.12 Ю 5
{7}
4000 м слабый снег {метель} 10/8 300 м
[Frnb As op]
-4.8 -5.5 95 -12 -12 995.7 992.9 -2.6 4
09 14.12 Ю 3
{7}
4000 м слабый снег 10/8 300 м
[Frnb As op]
-6.8 -7.6 94 -13 -13 997.9 995.0
12 14.12 Ю 5
{7}
4000 м слабый снег 10/8 300 м
[Frnb As op]
-8.8 -9.7 93 -17 -17 999.3 996.4
15 14.12 Ю 4
{6}
4000 м слабый снег 10/8 300 м
[Frnb As op]
-9.1 -10.6 89 -16 -16 1000.4 997.5
18 14.12 ЮВ 2
{5}
4000 м слабый снег 10/8 300 м
[Frnb As op]
-9.5 -10.5 92 -14 -14 1000.3 997.4 -9.6 0.3 22
21 14.12 Ю 2
{4}
4000 м слабый снег 10/8 300 м
[Frnb As op]
-9.8 -10.8 92 -14 -14 999.7 996.8 -9.8
00 15.12 штиль 0
{4}
2000 м слабый снег 10/8 300 м
[Frnb Ac trans Cs]
-10.3 -11.4 92 -11 -11 999.6 996.7
03 15.12 Ю 3
{5}
10 км в посл. час снег 10/8 930 м
[Sc Ac trans Cs]
-10.1 -11.3 91 -16 -16 998.8 995.9
06 15.12 ЮВ 1
{4}
10 км {снег} 10/6 1000 м
[Sc Ac trans Ci fib]
-11.8 -13.1 90 -14 -14 998.8 995.9 -9.1 2
09 15.12 ЮЗ 2
{4}
10 км 10/3 1000 м
[Sc Ac trans Ci sp]
-11.1 -12.4 90 -16 -16 998.9 996.0
12 15.12 С 1
{4}
4000 м слабый снег 10/0
[As op]
-9.0 -10.2 91 -11 -11 998.6 995.7
15 15.12 С 7-13
{13}
4000 м слабый снег {метель} 10/0
[As op]
-6.3 -11.5 67 -15 -15 998.3 995.4
18 15.12 СЗ 7-12
{14}
10 км позёмок {снег, метель} 10/5 1260 м
[Sc Ac und]
-5.9 -12.3 61 -14 -14 997.6 994.8 -12.0 0.0 24
21 15.12 С 6-10
{13}
4000 м слабый снег {метель} 10/8 600 м
[Sc As op]
-5.5 -11.9 61 -13 -13 998.3 995.4 -12.0
00 16.12 СВ 4
{12}
4000 м слабый ливневой снег 10/8 600 м
[Cb cap As op]
-5.7 -10.5 69 -12 -12 998.6 995.7
03 16.12 СВ 1
{7}
10 км {ливн. осадки} 10/8 900 м
[Cb cap Ac und]
-7.6 -11.8 72 -10 -10 999.5 996.6
06 16.12 С 3
{9}
10 км {ливн. осадки} 10/5 960 м
[Cb cap Ac trans Ci sp]
-7.3 -12.6 66 -13 -13 1000.3 997.4 -5.0 0.0
09 16.12 С 8-14
{14}
20 км позёмок {метель} 3/0
[Ci sp]
-6.7 -12.4 64 -16 -16 998.5 995.6
12 16.12 СЗ 12-17
{19}
20 км позёмок {метель} ясно -8.0 -12.9 68 -19 -19 999.0 996.1
15 16.12 С 11-17
{18}
20 км позёмок {метель} ясно -8.3 -13.5 66 -19 -19 999.8 996.9
18 16.12 С 8-12
{19}
20 км позёмок {метель} ясно -8.9 -15.1 61 -18 -18 1000.5 997.6 -10.3 23
21 16.12 СЗ 5-12
{14}
20 км {метель} 3/0
[Ac trans]
-9.1 -16.3 56 -17 -17 1001.8 998.9 -10.3
00 17.12 СЗ 8-15
{15}
20 км позёмок {метель} 10/3 1000 м
[Sc Ci fib]
-9.4 -16.4 57 -19 -19 1002.8 999.9
03 17.12 СЗ 6-12
{15}
20 км {метель} 10/5 1500 м
[Sc Ac trans Cs]
-9.0 -16.2 56 -17 -17 1003.8 1000.9
06 17.12 С 6-10
{12}
4000 м слабый снег {метель} 10/5 1000 м
[Sc Ac trans Cs]
-9.6 -16.2 59 -18 -18 1005.5 1002.6 -8.7 0.0

 

Местоположение метеостанции Эгвекинот (Чукотка, Россия): широта 66.35 долгота -179.00 высота над уровнем моря 22 м.

В архиве по умолчанию представлена погода в Эгвекиноте за последнюю неделю. Архивные данные за месяц целиком и за предыдущие месяцы, начиная с января 2011 года, Вы можете получить, выбрав интересующий диапазон дат из раскрывающегося списка и нажав кнопку "Ввод!".

Внимание! Время в таблицах - всемирное. Для получения местного времени необходимо прибавить поправку, которая в Эгвекиноте равна 12 ч.

Смотрите также архив погоды в соседних городах и на ближайших метеорологических станциях:

Погода на Мысе Ванкарем (Чукотка, Россия) (239 км)
Погода на Мысе Шмидта (Чукотка, Россия) (280 км)
Погода в Уэлене (Чукотка, Россия) (448 км)
Погода на Острове Врангеля (Чукотка, Россия) (517 км)

Пояснения к столбцам:

Ветер - указаны скорость ветра в м/с - средняя за 10 мин, порывы в срок и между сроками (в фигурных скобках) и направление, откуда дует ветер: С - северный, СВ - северо-восточный, В - восточный, ЮВ - юго-восточный, Ю - южный, ЮЗ - юго-западный, З - западный, СЗ - северо-западный.
Видимость - горизонтальная дальность видимости в метрах или километрах. При видимости от 1 до 10 км при отсутствии осадков обычно наблюдается дымка, при ухудшении видимости до 1 км и менее - туман. В сухую погоду видимость может ухудшаться дымом, пылью или мглою.
Явления - указаны атмосферные явления, наблюдавшиеся в срок или в последний час перед сроком; фигурными скобками обозначены явления, наблюдавшиеся между сроками (за 1-3 часа до срока); квадратными скобками обозначены град или гололедные отложения с указанием их диаметра в мм.
Облачность - указаны через наклонную черту общая и нижняя облачность в баллах и высота нижней границы облаков в метрах; квадратными скобками обозначены формы облаков: Ci - перистые, Cs - перисто-слоистые, Cc - перисто-кучевые, Ac - высококучевые, As - высокослоистые, Sc - слоисто-кучевые, Ns - слоисто-дождевые, Cu - кучевые, Cb - кучево-дождевые. Подробнее классификацию облаков см. в Атласе облаков (PDF).
T - Температура воздуха - температура, измеренная на высоте 2 м над землей.
Td - Температура точки росы - температура, при понижении до которой содержащийся в воздухе водяной пар достигнет насыщения.
f - Относительная влажность воздуха - влажноcть воздуха, измеренная на высоте 2 м над землей.
Te - Эффективная температура - температура, которую ощущает одетый по сезону человек в тени. Характеристика душности погоды. При расчете учитывается влияние влажности воздуха и скорости ветра на теплоощущения человека.
Tes - Эффективная температура на солнце - температура, которую ощущает человек, с поправкой на солнечный нагрев. Характеристика знойности погоды. Зависит от высоты солнца над горизонтом, облачности и скорости ветра. Ночью, в пасмурную погоду, а также при ветре 12 м/с и более поправка равна нулю.
P - Атмосферное давление - приведенное к уровню моря атмосферное давление.
Po - Атмосферное давление - измеренное на уровне метеостанции атмосферное давление.
Tmin - Минимальная температура - минимум температуры воздуха на высоте 2 м над землей.
Tmax - Максимальная температура - максимум температуры воздуха на высоте 2 м над землей.
R - Количество осадков - Количество выпавших осадков за период времени, мм. При наведении курсора мыши на число - период времени, за который выпало указанное количество осадков.
R24 - Количество осадков - Количество выпавших осадков за 24 часа, мм.
S - Снежный покров - Высота снежного покрова, см. При наведении курсора мыши на число - состояние снежного покрова и степень покрытия местности в баллах.